Location: Austin
(30.3000°N, 97.7500°W)
Time: 00:09:05
(UTC-05:00)

CZ-4B R/B - Pass Details

Date: 06 May 2026
Orbit: 462 x 561 km, 97.8° (Epoch: 13 May)

Event Time Altitude Azimuth Distance (km) Brightness Sun altitude
Exits shadow 21:47:36 24° 188° (S) 1,136 5.2 -19.2°
Maximum altitude 21:49:45 59° 259° (W) 638 4.3 -19.5°
Drops below altitude 10° 21:53:41 10° 340° (NNW) 1,840 7.3 -20.2°
Sets 21:55:53 0° 344° (NNW) 2,745 8.2 -20.6°
